{"data":{"norad_id":60017,"epoch":"2026-05-25T04:27:00.504000Z","epoch_age_seconds":58947,"freshness":"FRESH","line1":"1 60017U 24111B   26145.18542250  .00000472  00000+0  26958-4 0  9994","line2":"2 60017  53.1616  80.4335 0001093  93.7467 266.3660 15.31702209110708","mean_motion":15.31702209,"eccentricity":0.0001093,"inclination_deg":53.1616,"raan_deg":80.4335,"arg_perigee_deg":93.7467,"mean_anomaly_deg":266.366,"bstar":2.6958e-5,"rev_number":11070,"period_min":94.013052376554,"perigee_km":469.98482878366,"apogee_km":471.48199185536,"semimajor_km":6848.8704103195,"source":"CELESTRAK","updated_at":"2026-05-25T13:38:19.131043Z"}}